Huvudsida
METAR-TAF:

METAR-TAF

Flygplatser :

El Dorado, Kansas, USA

latitud: 37-46-27N, longitud: 096-49-03W, höjd: 420 m

Aktuellt väderrapport

Denna rapport gjordes för 17 minuter sedan, klockan 00:35 UTC
Stilla vind
Temperatur 1°C
Fuktighet 51%
Tryck 1028 hPa
Sikt: 16.1 km
Klar himmel

METAR: KEQA 110035Z AUTO 00000KT 10SM CLR 01/M08 A3037 RMK AO2

Tid: 18:52 (00:52 UTC)


TAF: saknas

Aktuella väderrapporter och prognoser från 4000 flygplatser (METAR- och TAF-rapporter).

De tillgängliga stationerna syns som gula och röda prickar på kartan.

För musen över prickarna för att se namnen på stationerna.

Klicka sedan för att få väderrapporter och prognoser.

För att ändra kartan: Klicka på de gröna knapparna med ett svart kors på för att zooma in; den gröna knappen med ett streck på för att zooma ut; eller på de gröna pilarna för angränsande kartor.


METAR-TAF: